TITAN 3C TRANSTAGE R/B, 1863

Orbit data source: Space-Track

TITAN 3C TRANSTAGE R/B, 1863 is space debris in HEO originally from a launch on Tue, 21 Dec 1965 UTC launched from the Air Force Eastern Test Range (AFETR). Debris objects in space refer to the collection of defunct objects orbiting the Earth. Examples of debris include non-operational satellites, rocket bodies, and fragments generated from explosions, collisions, or faulty payload assembly.

Loading next visibility...
Identifier
1863, 1965-108A
Orbit
HEO
Last TLE update
22 hours ago
Origin
Manufacturer
Martin Marietta
Mission
Spacecraft
Bus & Motor
TRANSTAGE, Unknown motor
Mass
~2,050 kg wet, 1,950 kg dry
Launch date (UTC)
1965-12-21 (60 years ago)
Launch vehicle
Unknown
Launch site
Air Force Eastern Test Range (AFETR)
Object type
Payload
Rocket body
Debris
Shape & HBR
Cyl + 2 Nozzle, 4.6 m
Radar Cross Section
14.974 m², Large (>1 m²)

Expand to show TLE details & history

TLE from 22 hours ago
0 TITAN 3C TRANSTAGE R/B
1 01863U 65108A   25181.47984818  .00003085  00000-0  15581-2 0  9992
2 01863  26.7138 118.9618 6020506  43.8883 350.5258  3.96025726354330
Epoch: 2025-06-30T11:30Z
TLE epoch observation values (Epoch: 2025-06-30T11:30:58.882Z)
Latitude
0.00007°
Longitude
27.41405°
Altitude
1,123.31 km
Speed
9.091 km/s
True Right ascension
07h 55m 47s
True Declination
0° 00' 00"
Sunlit
Object was in daylight at epoch
Visualization orbit readout
Latitude
-20.26398°
Longitude
-106.13647°
Altitude
20,481.333 km
Speed
2.463 km/s
Apparent Right ascension
23h 30m 36s
Apparent Declination
-32° 07' 44"
Sunlit
Object is in daylight
Visualization observer readout
Local Sidereal Time
20:48:34
Azimuth
146.181° SSE
Elevation
8.778°
Doppler factor
1
Orbital elements
Apogee altitude
20,662.776 km
Perigee altitude
338.826 km
Semi-major axis
16,878.938 km
Eccentricity
0.60205
Inclination
26.7138°
RAAN
118.9618°
Arg. of periapsis
43.8883°
True anomaly
Unknown
Mean anomaly
350.5258°
Eccentric anomaly
Unknown
Mean motion
0.98975 °/min
Orbital period
363.73 mins
BSTAR
0.0015581
Loading maneuver chart data...
Loading SW <> Apogee altitude chart data...

TITAN 3C TRANSTAGE R/B Visibility forecast

Observer location: undefined°, undefined°

Span
Click to sort rows by Start time (UTC) header in descending order
Start Az.
Max El. time (UTC)
Max El. Az.
Max El.
End time (UTC)
End Az.
168 mins2025-07-02 06:22:20.446Z253.932° W2025-07-02 06:40:20.446Z189.464° SSW32.645°2025-07-02 09:10:20.446Z150.351° SSE
|